Location: Chassagnes
(44.4047°N, 4.1657°E)
Time: 13:06:33
(UTC+00:00)

ARGOS - Pass Details

Date: 27 October 2020
Orbit: 820 x 835 km, 98.4° (Epoch: 23 November)

Event Time Altitude Azimuth Distance (km) Brightness Sun altitude
Exits shadow 18:54:40 46° 155° (SSE) 1,110 3.5 -24.7°
Maximum altitude 18:56:21 81° 74° (ENE) 849 3.0 -25.0°
Drops below altitude 10° 19:01:49 10° 348° (NNW) 2,456 5.8 -26.0°
Sets 19:04:11 0° 348° (NNW) 3,395 6.6 -26.4°
